Regional Weather Roundup
Issued by NWS Cleveland, OH

Home | Current Version | Previous Version | Graphics & Text | Print | Product List | Glossary On
Versions: 1 2 3 4 5 6 7 8 9 10 11 12 13 14 15 16 17 18 19 20 21 22 23 24 25 26 27 28 29 30 31 32 33 34 35 36 37 38 39 40 41 42 43 44 45 46 47 48 49 50
000
ASUS41 KCLE 040810
RWRCLE
OHIO REGIONAL WEATHER ROUNDUP
NATIONAL WEATHER SERVICE CLEVELAND, OH
400 AM EDT FRI SEP 04 2015

NOTE: "FAIR" INDICATES FEW OR NO CLOUDS BELOW 12,000 FEET WITH NO
SIGNIFICANT WEATHER AND/OR OBSTRUCTIONS TO VISIBILITY.

OHZ001>008-015>018-024>027-034-035-043-044-040900-
   NORTHWEST OHIO

CITY           SKY/WX    TMP DP  RH WIND       PRES   REMARKS
DEFIANCE       PTCLDY    71  67  87 NE5       29.95R FOG
FINDLAY        MOCLDY    71  66  84 SE8       29.97S
TOLEDO EXPRESS CLOUDY    67  65  93 SE7       29.96S
TOLEDO EXEC    CLOUDY    69  64  84 SE9       29.97R
LIMA           MOCLDY    73  67  81 S7        29.97S
$$

OHZ009>014-019>023-028>033-038-089-040900-
   NORTHEAST OHIO

CITY           SKY/WX    TMP DP  RH WIND       PRES   REMARKS
CLE-HOPKINS    LGT RAIN  67  65  93 S7        30.02S
CLE-LAKEFRONT  LGT RAIN  70  65  84 S3        29.99R
CUY CO. ARPT   NOT AVBL
LORAIN-ELYRIA  LGT RAIN  66  65  96 S6        30.00F
ASHTABULA      PTCLDY    65  64  97 CALM      30.01S FOG
AKRON-CANTON   LGT RAIN  68  64  87 W6        30.03R FOG
WOOSTER        RAIN      66  65  96 CALM      30.06R FOG
MANSFIELD      CLOUDY    66  65  96 E12       30.03S THUNDER
YOUNGSTOWN     MOCLDY    67  66  97 E5        30.02R FOG
$$

OHZ042-051>053-060>062-070>072-077>081-040900-
  SOUTHWEST OHIO

CITY           SKY/WX    TMP DP  RH WIND       PRES   REMARKS
CINC-COVINGTON CLEAR     70  66  87 CALM      29.99S
CINC-LUNKEN    FOG       67  67 100 CALM      29.99R VSB 1
HAMILTON       CLEAR     69  67  93 NW3       29.99S FOG
DAYTON         PTCLDY    74  67  78 W7        30.00R
WRIGHT-PAT AFB MOCLDY    72  69  90 E1        29.98S
DAYTON GENERAL MOCLDY    72  66  81 CALM      29.99R
WILMINGTON     CLEAR     68  66  93 CALM      30.00R FOG
$$

OHZ036-037-039>041-045>050-054>059-063>069-073>076-082>088-040900-
  CENTRAL AND SOUTHEAST OHIO

CITY           SKY/WX    TMP DP  RH WIND       PRES   REMARKS
COLUMBUS       MOCLDY    70  66  87 E5        29.99S
OSU AIRPORT    CLOUDY    71  66  84 SE8       29.99F
BOLTON FIELD   MOCLDY    69  65  90 E5        30.01S
RICKENBACK AFB MOCLDY    67  64  89 E6        30.00R
NEWARK         LGT RAIN  69  66  90 E6        30.00F
MARION         CLOUDY    68  65  90 E10       30.01R
LANCASTER      MOCLDY    69  64  84 CALM      30.02R
ZANESVILLE     CLOUDY    69  66  90 NW9G22    30.04R
NEW PHILLY     CLOUDY    67  66  97 CALM      30.03R FOG
$$


USA.gov is the U.S. government's official web portal to all federal, state and local government web resources and services.